Find Badr 6

NORAD ID: 33154 Int'l Des: 2008-034 Owner: ARAB Country: I-ARAB operational
HEOCIRCULAR

現在のビュー

3D地球を読み込み中...

Badr 6について

説明を読み込み中...

次回通過

Passes for default location (London). Set your location on the main map for personalized predictions.

高度履歴

Loading altitude history...

軌道要素

1 33154U 08034B 26149.56598354 -.00000082 00000-0 00000-0 0 9999
2 33154 2.8234 79.6987 0011452 345.7439 221.5600 0.98746941 65488
Epoch: May 29, 2026 • Age: 14 hours

現在のステータス

高度 36207.0 km
速度 3.06 km/s
衛星直下点 2.50°N, 167.06°W
打ち上げ日 Jul 7, 2008
運用期間 17.8 years
タイプ other

技術仕様

分類 Payload
質量 3346.00 kg
乾燥質量 1510.00 kg
総質量 3346.00 kg
長さ 2.90 m
直径 1.80 m
スパン 32.00 m
形状 Box + 2 Pan + Dish
製造者 ASTT
バスタイプ Eurostar 2000+
フェーズステータス In Orbit
所有者/国 ARAB/I-ARAB

Most Searched